When you browse on this site, cookies collect data to enhance your experience and personalize the content and advertising you see.
Visit our Privacy Policy to learn more. By continuing to use the site, you agree to this use of cookies and data.

Météo par heure à Maslovo-Volosevich

Ce jour, 7 Juillet, Mardi

Heure Température Précipitation Vent Pression Humidité
00:00 +21°C° 0 mm 2 m/s 741 mmHg 88%
01:00 +20°C° 0 mm 2 m/s 741 mmHg 90%
02:00 +20°C° 0 mm 2 m/s 741 mmHg 92%
03:00 +20°C° 0 mm 2 m/s 740 mmHg 94%
04:00 +21°C° 0.1 mm 2 m/s 740 mmHg 94%
05:00 +21°C° 0.1 mm 2 m/s 740 mmHg 94%
06:00 +21°C° 0.1 mm 2 m/s 740 mmHg 94%
07:00 +24°C° 0 mm 2 m/s 740 mmHg 90%
08:00 +26°C° 0 mm 3 m/s 740 mmHg 86%
09:00 +27°C° 0 mm 3 m/s 740 mmHg 81%
10:00 +28°C° 0.2 mm 3 m/s 740 mmHg 77%
11:00 +30°C° 0.2 mm 3 m/s 739 mmHg 73%
12:00 +31°C° 0.2 mm 3 m/s 739 mmHg 69%
13:00 +32°C° 0.2 mm 4 m/s 739 mmHg 69%
14:00 +32°C° 0.2 mm 4 m/s 739 mmHg 69%
15:00 +32°C° 0.2 mm 4 m/s 739 mmHg 69%
16:00 +32°C° 0.2 mm 4 m/s 738 mmHg 70%
17:00 +32°C° 0.2 mm 4 m/s 738 mmHg 71%
18:00 +32°C° 0.2 mm 4 m/s 738 mmHg 73%
19:00 +29°C° 0 mm 4 m/s 737 mmHg 73%
20:00 +28°C° 0 mm 4 m/s 737 mmHg 72%
21:00 +26°C° 0 mm 4 m/s 737 mmHg 72%
22:00 +25°C° 0 mm 4 m/s 737 mmHg 70%
23:00 +25°C° 0 mm 4 m/s 737 mmHg 68%

Demain, 8 Juillet, Mercredi

Heure Température Précipitation Vent Pression Humidité
00:00 +23°C° 0 mm 4 m/s 736 mmHg 67%
01:00 +23°C° 0 mm 4 m/s 736 mmHg 66%
02:00 +23°C° 0 mm 4 m/s 736 mmHg 65%
03:00 +23°C° 0 mm 4 m/s 736 mmHg 64%
04:00 +22°C° 0 mm 3 m/s 736 mmHg 67%
05:00 +22°C° 0 mm 3 m/s 736 mmHg 71%
06:00 +21°C° 0 mm 3 m/s 735 mmHg 75%
07:00 +23°C° 0.1 mm 2 m/s 735 mmHg 75%
08:00 +24°C° 0.1 mm 2 m/s 736 mmHg 74%
09:00 +26°C° 0.1 mm 2 m/s 736 mmHg 73%
10:00 +27°C° 0 mm 2 m/s 736 mmHg 71%
11:00 +27°C° 0 mm 3 m/s 736 mmHg 68%
12:00 +28°C° 0 mm 4 m/s 736 mmHg 65%
13:00 +28°C° 0.1 mm 3 m/s 737 mmHg 69%
14:00 +28°C° 0.1 mm 3 m/s 737 mmHg 72%
15:00 +27°C° 0.1 mm 3 m/s 737 mmHg 75%
16:00 +26°C° 1.2 mm 3 m/s 737 mmHg 79%
17:00 +25°C° 1.2 mm 3 m/s 737 mmHg 83%
18:00 +24°C° 1.2 mm 3 m/s 738 mmHg 87%
19:00 +22°C° 0.7 mm 4 m/s 738 mmHg 89%
20:00 +21°C° 0.7 mm 4 m/s 738 mmHg 92%
21:00 +20°C° 0.7 mm 4 m/s 738 mmHg 95%
22:00 +20°C° 0.4 mm 4 m/s 739 mmHg 95%
23:00 +19°C° 0.4 mm 4 m/s 739 mmHg 95%

Après-demain, 9 Juillet, Jeudi

Heure Température Précipitation Vent Pression Humidité
00:00 +19°C° 0.4 mm 5 m/s 739 mmHg 95%
01:00 +17°C° 0.8 mm 5 m/s 739 mmHg 95%
02:00 +16°C° 0.8 mm 5 m/s 739 mmHg 95%
03:00 +16°C° 0.8 mm 5 m/s 740 mmHg 95%
04:00 +15°C° 0.5 mm 5 m/s 740 mmHg 95%
05:00 +15°C° 0.5 mm 5 m/s 740 mmHg 94%
06:00 +15°C° 0.5 mm 5 m/s 740 mmHg 94%
07:00 +15°C° 0.1 mm 5 m/s 740 mmHg 93%
08:00 +15°C° 0.1 mm 5 m/s 740 mmHg 92%
09:00 +15°C° 0.1 mm 5 m/s 741 mmHg 91%
10:00 +16°C° 0 mm 5 m/s 741 mmHg 85%
11:00 +19°C° 0 mm 5 m/s 742 mmHg 79%
12:00 +20°C° 0 mm 6 m/s 742 mmHg 74%
13:00 +21°C° 0 mm 5 m/s 742 mmHg 72%
14:00 +21°C° 0 mm 5 m/s 743 mmHg 70%
15:00 +22°C° 0 mm 5 m/s 743 mmHg 67%
16:00 +22°C° 0 mm 4 m/s 743 mmHg 69%
17:00 +22°C° 0 mm 4 m/s 743 mmHg 71%
18:00 +21°C° 0 mm 4 m/s 744 mmHg 73%
19:00 +20°C° 0 mm 3 m/s 744 mmHg 77%
20:00 +18°C° 0 mm 3 m/s 744 mmHg 81%
21:00 +17°C° 0 mm 3 m/s 745 mmHg 85%
22:00 +16°C° 0 mm 3 m/s 745 mmHg 86%
23:00 +14°C° 0 mm 3 m/s 745 mmHg 87%

10 Juillet, Vendredi

Heure Température Précipitation Vent Pression Humidité
00:00 +14°C° 0 mm 3 m/s 745 mmHg 88%
01:00 +13°C° 0 mm 3 m/s 745 mmHg 89%
02:00 +13°C° 0 mm 3 m/s 746 mmHg 90%
03:00 +12°C° 0 mm 3 m/s 746 mmHg 91%
04:00 +13°C° 0 mm 3 m/s 746 mmHg 91%
05:00 +13°C° 0 mm 3 m/s 747 mmHg 90%
06:00 +13°C° 0 mm 3 m/s 747 mmHg 90%
07:00 +16°C° 0 mm 3 m/s 747 mmHg 85%
08:00 +17°C° 0 mm 3 m/s 747 mmHg 80%
09:00 +19°C° 0 mm 3 m/s 748 mmHg 76%
10:00 +20°C° 0 mm 3 m/s 748 mmHg 71%
11:00 +21°C° 0 mm 3 m/s 748 mmHg 67%
12:00 +22°C° 0 mm 3 m/s 748 mmHg 63%
13:00 +22°C° 0 mm 3 m/s 748 mmHg 62%
14:00 +22°C° 0 mm 3 m/s 748 mmHg 60%
15:00 +22°C° 0 mm 3 m/s 748 mmHg 59%
16:00 +22°C° 0 mm 3 m/s 748 mmHg 62%
17:00 +23°C° 0 mm 2 m/s 749 mmHg 65%
18:00 +23°C° 0 mm 2 m/s 749 mmHg 68%
19:00 +20°C° 0 mm 2 m/s 749 mmHg 71%
20:00 +19°C° 0 mm 1 m/s 749 mmHg 73%
21:00 +18°C° 0 mm 1 m/s 749 mmHg 76%
22:00 +16°C° 0 mm 1 m/s 749 mmHg 76%
23:00 +16°C° 0 mm 1 m/s 750 mmHg 77%

11 Juillet, Samedi

Heure Température Précipitation Vent Pression Humidité
00:00 +15°C° 0 mm 1 m/s 750 mmHg 77%
01:00 +15°C° 0 mm 1 m/s 750 mmHg 78%
02:00 +14°C° 0 mm 1 m/s 750 mmHg 79%
03:00 +14°C° 0 mm 1 m/s 750 mmHg 81%
04:00 +14°C° 0 mm 0 m/s 750 mmHg 81%
05:00 +14°C° 0 mm 0 m/s 750 mmHg 81%
06:00 +15°C° 0 mm 0 m/s 750 mmHg 81%
07:00 +18°C° 0 mm 1 m/s 750 mmHg 76%
08:00 +20°C° 0 mm 1 m/s 751 mmHg 72%
09:00 +21°C° 0 mm 1 m/s 751 mmHg 67%
10:00 +22°C° 0 mm 1 m/s 750 mmHg 63%
11:00 +23°C° 0 mm 2 m/s 750 mmHg 60%
12:00 +24°C° 0 mm 2 m/s 750 mmHg 56%
13:00 +24°C° 0 mm 2 m/s 750 mmHg 55%
14:00 +25°C° 0 mm 2 m/s 750 mmHg 53%
15:00 +25°C° 0 mm 2 m/s 750 mmHg 52%
16:00 +25°C° 0 mm 2 m/s 749 mmHg 55%
17:00 +25°C° 0 mm 1 m/s 749 mmHg 59%
18:00 +25°C° 0 mm 1 m/s 749 mmHg 62%
19:00 +23°C° 0 mm 1 m/s 749 mmHg 65%
20:00 +21°C° 0 mm 1 m/s 749 mmHg 67%
21:00 +20°C° 0 mm 1 m/s 749 mmHg 70%
22:00 +19°C° 0 mm 1 m/s 748 mmHg 70%
23:00 +19°C° 0 mm 1 m/s 748 mmHg 71%

12 Juillet, Dimanche

Heure Température Précipitation Vent Pression Humidité
00:00 +17°C° 0 mm 2 m/s 748 mmHg 71%
01:00 +17°C° 0 mm 2 m/s 748 mmHg 72%
02:00 +16°C° 0 mm 2 m/s 748 mmHg 73%
03:00 +16°C° 0 mm 2 m/s 748 mmHg 74%
04:00 +16°C° 0 mm 2 m/s 748 mmHg 76%
05:00 +18°C° 0 mm 1 m/s 748 mmHg 77%
06:00 +18°C° 0 mm 1 m/s 748 mmHg 79%
07:00 +20°C° 0 mm 1 m/s 748 mmHg 75%
08:00 +21°C° 0 mm 1 m/s 748 mmHg 71%
09:00 +23°C° 0 mm 1 m/s 748 mmHg 66%
10:00 +24°C° 0 mm 1 m/s 747 mmHg 64%
11:00 +25°C° 0 mm 1 m/s 747 mmHg 61%
12:00 +26°C° 0 mm 1 m/s 747 mmHg 58%
13:00 +26°C° 0 mm 1 m/s 747 mmHg 56%
14:00 +27°C° 0 mm 1 m/s 746 mmHg 55%
15:00 +27°C° 0 mm 1 m/s 746 mmHg 53%
16:00 +27°C° 0 mm 1 m/s 746 mmHg 55%
17:00 +27°C° 0 mm 1 m/s 746 mmHg 57%
18:00 +25°C° 0 mm 0 m/s 745 mmHg 58%
19:00 +23°C° 0 mm 0 m/s 745 mmHg 62%
20:00 +21°C° 0 mm 0 m/s 745 mmHg 66%
21:00 +19°C° 0 mm 0 m/s 745 mmHg 70%
22:00 +21°C° 0 mm 1 m/s 745 mmHg 72%
23:00 +20°C° 0 mm 1 m/s 744 mmHg 74%
Voir plus